Tracking 19706 objects as of 16-Jun-2019
HD Live streaming from Space Station
objects crossing your sky now

CZ-4C DEB


CZ-4C DEB is no longer on orbit


NORAD ID: 35252
Int'l Code: 2007-055G
Perigee: N/A
Apogee: N/A
Inclination: N/A
Period: N/A
Semi major axis: N/A
RCS: N/A
Launch date: November 11, 2007
Source: People's Republic of China (PRC)
Launch site: Taiyaun Space Center, China (TSC)
Decay date: 2016-02-07

Note: This is SATELLITE DEBRIS
aabbcc
Your satellite tracking list
Your tracking list is empty




NASA's NSSDC Master Catalog

Two Line Element Set (TLE):
1 35252U 07055G   16036.36730598  .01736569  18755-2  34326-2 0  9996
2 35252  97.7513  90.5008 0003187 282.7378  78.8654 16.00464711446922
Source of the keplerian elements: AFSPC